FW5298 Weather Reports


time (UTC)temp
F
wind
direction
speed
knots
gust
knots
rain 1hr
in
rain 24hr
in
rain mn
in
humidity
%
barometer
mb
20260505085640 74 198 1.7 12.2 0.00 0.00 0.00 42 1013.4
20260505084657 73 195 1.7 3.5 0.00 0.00 0.00 42 1013.4
20260505083637 73 205 1.7 4.3 0.00 0.00 0.00 43 1013.4
20260505082633 72 196 1.7 6.1 0.00 0.00 0.00 44 1013.4
20260505081632 71 204 1.7 5.2 0.00 0.00 0.00 44 1013.4
20260505080629 71 182 1.7 5.2 0.00 0.00 0.00 45 1013.5
20260505075648 70 201 1.7 4.3 0.00 0.00 0.00 46 1013.5
20260505074626 69 234 0.9 5.2 0.00 0.00 0.00 47 1013.6
20260505073624 68 218 1.7 11.3 0.00 0.00 0.00 47 1013.5
20260505072621 67 207 1.7 10.4 0.00 0.00 0.00 48 1013.5
20260505071619 66 212 1.7 6.1 0.00 0.00 0.00 49 1013.5
20260505070618 65 203 0.9 3.5 0.00 0.00 0.00 48 1013.5
20260505065615 65 209 1.7 10.4 0.00 0.00 0.00 47 1013.5
20260505064613 65 197 1.7 10.4 0.00 0.00 0.00 48 1013.4
20260505063632 65 221 0.9 9.6 0.00 0.00 0.00 50 1013.5
20260505062609 65 225 0.9 3.5 0.00 0.00 0.00 50 1013.5
20260505061609 64 230 0.9 2.6 0.00 0.00 0.00 51 1013.5
20260505060606 63 225 0.9 3.5 0.00 0.00 0.00 52 1013.5
20260505055603 62 227 0.9 10.4 0.00 0.00 0.00 53 1013.4
20260505054602 61 216 0.9 1.7 0.00 0.00 0.00 55 1013.2
20260505053559 59 214 1.7 7.0 0.00 0.00 0.00 58 1013.1
20260505052557 57 227 0.9 8.7 0.00 0.00 0.00 60 1013.1
20260505051556 53 237 0.9 9.6 0.00 0.00 0.00 61 1013.1
20260505050614 52 235 0.9 6.1 0.00 0.00 0.00 61 1013.2
20260505041544 51 215 0.9 2.6 0.00 0.00 0.00 60 1013.1
20260505040622 51 225 0.9 15.6 0.00 0.00 0.00 59 1013.1
20260505035540 50 201 0.9 5.2 0.00 0.00 0.00 59 1013.0
20260505034538 50 206 0.9 9.6 0.00 0.00 0.00 59 1013.0
20260505033615 50 214 0.9 5.2 0.00 0.00 0.00 59 1012.9
20260505032554 50 225 0.9 1.7 0.00 0.00 0.00 59 1012.9
20260505031531 50 213 1.7 13.9 0.00 0.00 0.00 58 1012.8
20260505030530 50 221 0.9 2.6 0.00 0.00 0.00 58 1012.8
20260505025527 50 235 0.9 10.4 0.00 0.00 0.00 58 1012.8
20260505024546 50 240 0.9 2.6 0.00 0.00 0.00 58 1012.8
20260505023523 51 270 0.9 3.5 0.00 0.00 0.00 58 1012.8
20260505022542 51 227 0.9 5.2 0.00 0.00 0.00 57 1012.8
20260505021519 51 210 0.9 5.2 0.00 0.00 0.00 57 1012.8
20260505020517 51 214 0.9 5.2 0.00 0.00 0.00 57 1012.8
20260505015516 51 270 0.9 3.5 0.00 0.00 0.00 57 1012.7
20260505014514 52 211 0.9 5.2 0.00 0.00 0.00 55 1012.7
20260505013511 52 200 0.9 5.2 0.00 0.00 0.00 55 1012.8
20260505012529 52 189 0.9 3.5 0.00 0.00 0.00 54 1012.7
20260505011508 52 225 0.9 3.5 0.00 0.00 0.00 54 1012.8
20260505010546 53 215 0.9 1.7 0.00 0.00 0.00 54 1012.8
20260505005524 53 213 0.9 2.6 0.00 0.00 0.00 53 1012.7
20260505004001 53 181 1.7 5.2 0.00 0.00 0.00 53 1012.8
20260505003019 54 186 1.7 10.4 0.00 0.00 0.00 53 1012.8
20260505001957 54 189 1.7 3.5 0.00 0.00 0.00 53 1012.8
20260505000954 54 193 1.7 7.8 0.00 0.00 0.00 53 1012.9
20260504235953 54 194 1.7 3.5 0.00 0.00 0.00 52 1013.0
20260504234951 54 205 0.9 11.3 0.00 0.00 0.00 52 1012.9
20260504233949 55 190 1.7 3.5 0.00 0.00 0.00 51 1013.0
20260504232947 55 180 1.7 5.2 0.00 0.00 0.00 51 1013.0
20260504231945 55 194 0.9 2.6 0.00 0.00 0.00 51 1013.1
20260504230942 55 187 1.7 6.1 0.00 0.00 0.00 51 1013.1
20260504225941 56 208 0.9 2.6 0.00 0.00 0.00 51 1013.2
20260504224938 56 189 1.7 8.7 0.00 0.00 0.00 50 1013.1
20260504223937 56 193 1.7 4.3 0.00 0.00 0.00 50 1013.1
20260504222935 56 185 1.7 7.8 0.00 0.00 0.00 50 1013.2
20260504221932 57 207 1.7 10.4 0.00 0.00 0.00 50 1013.2
20260504220931 57 206 0.9 1.7 0.00 0.00 0.00 50 1013.1
20260504215928 57 187 1.7 4.3 0.00 0.00 0.00 50 1013.2
20260504214927 58 220 0.9 4.3 0.00 0.00 0.00 50 1013.2
20260504213926 58 217 0.9 7.0 0.00 0.00 0.00 49 1013.2
20260504212943 59 204 1.7 4.3 0.00 0.00 0.00 49 1013.2
20260504211921 59 207 1.7 11.3 0.00 0.00 0.00 48 1013.2
20260504210939 60 198 1.7 12.2 0.00 0.00 0.00 47 1013.1
20260504205917 60 180 1.7 9.6 0.00 0.00 0.00 47 1013.1
20260504204915 60 178 1.7 2.6 0.00 0.00 0.00 47 1013.1
20260504203913 60 188 1.7 5.2 0.00 0.00 0.00 47 1013.1
20260504202910 60 177 1.7 9.6 0.00 0.00 0.00 47 1013.1
20260504201908 61 182 1.7 4.3 0.00 0.00 0.00 47 1013.2
20260504200909 61 189 1.7 8.7 0.00 0.00 0.00 47 1013.2
20260504195906 61 188 1.7 5.2 0.00 0.00 0.00 47 1013.0
20260504194904 61 225 0.9 12.2 0.00 0.00 0.00 47 1013.0
20260504193901 62 201 0.9 3.5 0.00 0.00 0.00 46 1013.0
20260504192859 62 216 0.9 1.7 0.00 0.00 0.00 46 1012.9
20260504191858 63 216 0.9 5.2 0.00 0.00 0.00 46 1012.9
20260504190855 63 202 0.9 5.2 0.00 0.00 0.00 46 1012.9
20260504185852 64 204 1.7 9.6 0.00 0.00 0.00 45 1012.8
20260504184852 64 191 1.7 11.3 0.00 0.00 0.00 45 1012.8
20260504183909 64 194 0.9 3.5 0.00 0.00 0.00 45 1012.7
20260504182847 65 199 0.9 1.7 0.00 0.00 0.00 45 1012.7
20260504181845 65 204 1.7 6.1 0.00 0.00 0.00 45 1012.5
20260504180903 66 225 0.9 5.2 0.00 0.00 0.00 44 1012.4
20260504175841 66 219 0.9 1.7 0.00 0.00 0.00 43 1012.3
20260504174840 67 225 0.9 1.7 0.00 0.00 0.00 42 1012.2
20260504173837 68 225 0.9 4.3 0.00 0.00 0.00 42 1012.2
20260504172835 69 235 0.9 5.2 0.00 0.00 0.00 41 1012.2
20260504171833 70 225 0.9 14.8 0.00 0.00 0.00 41 1012.2
20260504170832 70 225 0.9 2.6 0.00 0.00 0.00 41 1012.1
20260504150807 74 11 1.7 4.3 0.00 0.00 0.00 36 1012.1
20260504140755 75 14 2.6 6.1 0.00 0.00 0.00 35 1012.5
20260504130743 76 17 3.5 7.8 0.00 0.00 0.00 35 1012.7